Simultaneous Nadir Overpasses (SNOs) Predictions

Prediction of SNOs between NPP and TERRA Satellite Orbit:

Table of predicted SNOs for the next 14.0 days since TLE Epoch: 12/24/2014
Index Date (NPP) Time (NPP) Lat,Lon (NPP) SZA (NPP ) Date (TERRA) Time (TERRA) Lat,Lon (TERRA) SZA (TERRA ) Distance(km) Time Diff (sec)
1 12/25/2014 21:59:42 69.15,-150.30 92.41 12/25/2014 22:00:08 69.16,-150.33 92.42 1.44 26
2 12/25/2014 22:50:23 -69.03, 17.19 87.72 12/25/2014 22:49:38 -69.04, 17.15 87.71 1.92 45
3 12/28/2014 13:25:54 -69.56, 157.58 87.28 12/28/2014 13:27:05 -69.45, 158.30 87.40 30.35 71
4 12/28/2014 14:16:32 69.11, -34.48 92.26 12/28/2014 14:16:36 69.13, -34.48 92.28 1.83 4
5 12/28/2014 15:07:13 -68.99, 133.01 87.87 12/28/2014 15:06:06 -69.01, 133.00 87.85 2.67 67
6 12/31/2014 05:42:38 -69.22, -86.15 87.80 12/31/2014 05:43:36 -69.21, -86.14 87.81 1.27 58
7 12/31/2014 06:33:22 69.09, 81.33 92.07 12/31/2014 06:33:03 69.10, 81.37 92.08 1.95 19
8 12/31/2014 07:23:52 -68.37,-110.40 88.65 12/31/2014 07:22:43 -68.43,-111.83 88.59 59.18 69
9 01/02/2015 21:59:26 -69.15, 29.72 88.09 01/02/2015 22:00:01 -69.18, 29.72 88.06 3.38 35
10 01/02/2015 22:50:10 69.02,-162.80 91.79 01/02/2015 22:49:29 69.01,-162.84 91.78 2.11 41
11 01/05/2015 13:25:41 69.60, -22.45 92.11 01/05/2015 13:26:52 69.48, -21.61 91.98 35.21 71
12 01/05/2015 14:16:15 -69.09, 145.58 88.41 01/05/2015 14:16:27 -69.09, 145.51 88.41 2.44 12
13 01/05/2015 15:06:59 68.97, -46.95
